TimePDT,TemperatureF,Dew PointF,Humidity,Sea Level PressureIn,VisibilityMPH,Wind Direction,Wind SpeedMPH,Gust SpeedMPH,PrecipitationIn,Events,Conditions,WindDirDegrees,DateUTC
12:53 AM,61.0,50.0,67,29.87,10.0,SSE,5.8,-,N/A,,Clear,160,2013-08-22 07:53:00
1:53 AM,61.0,51.1,70,29.86,10.0,South,5.8,-,N/A,,Clear,180,2013-08-22 08:53:00
2:53 AM,60.1,52.0,75,29.86,10.0,SSE,3.5,-,N/A,,Clear,160,2013-08-22 09:53:00
3:53 AM,60.1,52.0,75,29.86,10.0,SSE,4.6,-,N/A,,Clear,150,2013-08-22 10:53:00
4:53 AM,59.0,52.0,78,29.86,10.0,South,6.9,-,N/A,,Clear,180,2013-08-22 11:53:00
5:53 AM,57.9,51.1,78,29.87,10.0,South,3.5,-,N/A,,Clear,170,2013-08-22 12:53:00
6:53 AM,57.9,52.0,81,29.88,10.0,South,4.6,-,N/A,,Clear,170,2013-08-22 13:53:00
7:53 AM,60.1,52.0,75,29.89,10.0,South,10.4,-,N/A,,Clear,180,2013-08-22 14:53:00
8:53 AM,64.0,53.1,67,29.91,10.0,South,8.1,-,N/A,,Clear,190,2013-08-22 15:53:00
9:53 AM,66.9,53.1,61,29.91,10.0,SSW,10.4,18.4,N/A,,Clear,200,2013-08-22 16:53:00
10:53 AM,70.0,53.1,55,29.92,10.0,South,9.2,-,N/A,,Clear,190,2013-08-22 17:53:00
11:53 AM,71.1,53.1,53,29.91,10.0,South,12.7,18.4,N/A,,Clear,180,2013-08-22 18:53:00
12:53 PM,75.9,54.0,46,29.90,10.0,SSW,9.2,-,N/A,,Clear,200,2013-08-22 19:53:00
1:53 PM,80.1,53.1,39,29.88,10.0,Variable,6.9,-,N/A,,Clear,0,2013-08-22 20:53:00
2:53 PM,82.9,52.0,34,29.86,10.0,SSW,11.5,-,N/A,,Clear,200,2013-08-22 21:53:00
3:53 PM,84.0,50.0,31,29.83,10.0,SSW,11.5,-,N/A,,Clear,200,2013-08-22 22:53:00
4:53 PM,84.0,50.0,31,29.82,10.0,SSW,9.2,-,N/A,,Clear,200,2013-08-22 23:53:00
5:53 PM,81.0,52.0,36,29.81,10.0,SSW,10.4,18.4,N/A,,Clear,200,2013-08-23 00:53:00
6:53 PM,75.9,51.1,42,29.81,10.0,South,8.1,-,N/A,,Clear,180,2013-08-23 01:53:00
7:53 PM,70.0,50.0,49,29.83,10.0,SSW,8.1,-,N/A,,Clear,200,2013-08-23 02:53:00
8:53 PM,66.9,48.9,52,29.84,10.0,South,8.1,-,N/A,,Clear,180,2013-08-23 03:53:00
9:53 PM,64.0,50.0,60,29.86,10.0,Variable,5.8,18.4,N/A,,Clear,0,2013-08-23 04:53:00
10:53 PM,61.0,50.0,67,29.86,10.0,South,8.1,-,N/A,,Clear,190,2013-08-23 05:53:00
11:53 PM,60.1,50.0,69,29.87,10.0,South,6.9,-,N/A,,Clear,170,2013-08-23 06:53:00